[[{"header":{"parameterUnit":"m.s-1","parameterCategory":2,"la1":30.2991,"la2":30.254,"lo1":-89.0895,"lo2":-89.0444,"dy":0.0017,"dx":0.0017,"nx":28,"ny":28,"refTime":"2023-11-13T03:00:00:Z","depth":"0","parameterNumber":2,"parameterNumberName":"U-component_of_CURRENTS"},"data":[0,0,0,0,0,0,0,0,0,0,0,0,0,0,0,0,0,0,0,0,0,0,0,0,0,0,0,0,0,0,0,0,0,0,0,0,0,0,0,0,0,0,0,0,0,0,0,0,0,0,0,0,0,0,0,0,0,0,-0.2563,-0.2563,0,-0.2572,-0.2572,-0.2571,-0.2532,-0.2531,-0.253,-0.2529,-0.2497,-0.2497,-0.2497,0,0,0,0,0,0,0,0,0,0,0,0,0,-0.2495,-0.2496,-0.2563,-0.2563,-0.2564,-0.2572,-0.2572,-0.2571,-0.2532,-0.2531,-0.253,-0.2529,-0.2497,-0.2497,-0.2497,0,0,0,0,0,0,0,0,0,0,0,0,0,-0.2513,-0.2496,-0.2563,-0.2548,-0.2547,-0.2572,-0.2572,-0.2571,-0.2532,-0.2531,-0.253,-0.2528,-0.2497,-0.2497,-0.2496,-0.252,0,0,-0.2496,-0.2496,0,0,0,0,0,0,0,0,-0.2512,-0.2515,-0.2549,-0.2549,-0.2548,-0.2553,-0.2536,-0.2553,-0.2532,-0.2534,-0.2529,-0.2528,-0.2515,-0.2513,-0.2513,-0.2519,-0.2517,-0.2496,-0.2496,-0.2496,-0.2496,0,0,0,0,0,0,0,-0.2511,-0.2514,-0.2563,-0.255,-0.2549,-0.2535,-0.2536,-0.2539,-0.2528,-0.2534,-0.2532,-0.2539,-0.2513,-0.2513,-0.2512,-0.2517,-0.2496,-0.2496,-0.2496,-0.2496,-0.2545,-0.2546,0,0,0,0,0,0,-0.252,-0.2513,-0.2562,-0.2563,-0.253,-0.2538,-0.2538,-0.2549,-0.2528,-0.2525,-0.254,-0.2537,-0.2514,-0.2512,-0.2511,-0.2543,-0.2496,-0.2496,-0.2496,-0.2544,-0.2545,-0.2547,0,0,0,0,0,0,-0.2518,-0.2524,-0.2562,-0.2541,-0.2545,-0.2541,-0.2553,-0.255,-0.2548,-0.2534,-0.2529,-0.254,-0.2513,-0.2511,-0.2516,-0.2541,-0.2496,-0.2495,-0.2542,-0.2544,-0.2546,-0.2603,0,0,0,0,0,0,-0.2516,-0.2523,-0.2531,-0.2542,-0.2547,-0.2586,-0.2554,-0.2551,-0.2556,-0.2552,-0.2533,-0.2529,-0.2512,-0.2517,-0.2516,-0.2539,-0.2495,-0.254,-0.2543,-0.2545,-0.2599,-0.2607,-0.2613,0,0,0,0,0,-0.2514,-0.2533,-0.2531,-0.2537,-0.2559,-0.2588,-0.2589,-0.2578,-0.2557,-0.2568,-0.255,-0.2529,-0.2533,-0.2518,-0.2517,-0.2541,-0.2539,-0.2542,-0.2545,-0.2596,-0.2605,-0.2613,0,0,0,0,0,0,-0.2504,-0.2532,-0.253,-0.2555,-0.2574,-0.2583,-0.259,-0.2584,-0.2579,-0.2569,-0.2545,-0.2541,-0.2558,-0.2544,-0.2528,-0.2564,-0.2534,-0.2537,-0.2573,-0.2582,-0.2588,-0.2589,-0.2495,0,0,0,0,0,-0.2509,-0.2528,-0.2554,-0.2571,-0.2584,-0.2587,-0.2595,-0.2593,-0.2594,-0.2589,-0.2577,-0.2568,-0.2573,-0.2571,-0.2573,-0.2591,-0.2574,-0.2607,-0.2614,-0.262,-0.2621,-0.2618,-0.2625,-0.2557,-0.2557,-0.2557,0,0,-0.2507,-0.2526,-0.2534,-0.257,-0.2578,-0.2609,-0.2587,-0.2608,-0.2628,-0.2588,-0.2602,-0.2593,-0.2585,-0.2605,-0.2612,-0.2593,-0.2633,-0.2624,-0.2629,-0.2627,-0.2622,-0.2629,-0.2634,-0.2559,-0.2559,-0.2559,0,0,-0.252,-0.2534,-0.2557,-0.2582,-0.2611,-0.2623,-0.2632,-0.2649,-0.265,-0.2669,-0.2648,-0.2653,-0.2656,-0.2657,-0.2657,-0.2705,-0.2672,-0.2708,-0.2739,-0.2737,-0.2742,-0.2746,-0.2738,-0.2741,-0.2707,-0.2707,-0.2708,0,-0.2514,-0.255,-0.2568,-0.2603,-0.2624,-0.2632,-0.2665,-0.268,-0.2694,-0.2699,-0.268,-0.2691,-0.2682,-0.2709,-0.2723,-0.272,-0.2708,-0.2706,-0.2744,-0.2748,-0.2752,-0.2742,-0.2745,-0.2711,-0.271,-0.271,-0.271,0,-0.255,-0.258,-0.2598,-0.2644,-0.2673,-0.2702,-0.2735,-0.2754,-0.2752,-0.2759,-0.278,-0.277,-0.2769,-0.2778,-0.2762,-0.2791,-0.2772,-0.2756,-0.272,-0.2762,-0.275,-0.2751,-0.2715,-0.2714,-0.2713,-0.2712,0,0,-0.2518,-0.2606,-0.2607,-0.2636,-0.2696,-0.272,-0.2768,-0.2808,-0.2828,-0.2837,-0.2857,-0.2869,-0.2849,-0.2848,-0.2835,-0.2837,-0.2852,-0.2806,-0.2805,-0.2793,-0.2842,-0.2785,-0.278,-0.2838,-0.2839,-0.2839,-0.2825,0,-0.2532,-0.2599,-0.2644,-0.2701,-0.2735,-0.2776,-0.282,-0.2856,-0.2874,-0.2898,-0.2895,-0.2906,-0.2882,-0.2876,-0.2878,-0.286,-0.2858,-0.2857,-0.2808,-0.2806,-0.2746,-0.2781,-0.2676,-0.265,-0.2826,-0.2826,-0.2827,0,-0.254,-0.2585,-0.2646,-0.2727,-0.2746,-0.2782,-0.284,-0.2882,-0.2929,-0.2941,-0.2953,-0.2949,-0.296,-0.2927,-0.2914,-0.2912,-0.2881,-0.2864,-0.2862,-0.2788,-0.2752,-0.2637,-0.2646,-0.2626,-0.2829,-0.2829,-0.2828,0,-0.2487,-0.258,-0.2624,-0.2652,-0.275,-0.2776,-0.2818,-0.2878,-0.2911,-0.2956,-0.2975,-0.2988,-0.2985,-0.2962,-0.2923,-0.2917,-0.2901,-0.2886,-0.2808,-0.2804,-0.2693,-0.2678,-0.2669,-0.2874,-0.2874,-0.2874,-0.2874,0,-0.2476,-0.2505,-0.2599,-0.262,-0.2661,-0.2741,-0.2783,-0.2831,-0.29,-0.2933,-0.2976,-0.2992,-0.2992,-0.2982,-0.2942,-0.2877,-0.2911,-0.2818,-0.2798,-0.2711,-0.2698,-0.2657,-0.2662,-0.2873,-0.2873,-0.2873,-0.2873,0,-0.2401,-0.2472,-0.2517,-0.2611,-0.2635,-0.2653,-0.2746,-0.2783,-0.286,-0.2904,-0.2918,-0.299,-0.298,-0.2972,-0.2939,-0.2891,-0.2787,-0.2808,-0.2705,-0.2672,-0.2574,-0.2585,-0.2532,-0.2458,-0.2723,-0.2721,-0.272,0,-0.2368,-0.2384,-0.247,-0.2492,-0.2528,-0.2578,-0.2618,-0.2725,-0.2774,-0.2886,-0.2902,-0.2938,-0.2935,-0.289,-0.2819,-0.2748,-0.2724,-0.2612,-0.2582,-0.2558,-0.2557,-0.2557,-0.2499,-0.2462,-0.2459,-0.2456,-0.2454,0,-0.2283,-0.231,-0.2347,-0.2386,-0.2426,-0.2471,-0.254,-0.2578,-0.2706,-0.2756,-0.2816,-0.2829,-0.2826,-0.2723,-0.2655,-0.259,-0.2541,-0.2554,-0.2553,-0.2374,-0.2348,-0.227,-0.2489,-0.243,-0.2433,-0.2434,-0.2436,-0.2436,-0.2193,-0.2191,-0.2233,-0.2255,-0.2304,-0.2328,-0.2318,-0.242,-0.2462,-0.2516,-0.2638,-0.2635,-0.2626,-0.2518,-0.2462,-0.2338,-0.2369,-0.226,-0.2283,-0.2292,-0.2198,-0.2367,-0.2272,-0.2273,-0.2274,-0.2275,-0.2276,0,-0.2069,-0.208,-0.2102,-0.2121,-0.2113,-0.2179,-0.2235,-0.2209,-0.2206,-0.2321,-0.235,-0.2384,-0.2289,-0.2293,-0.2195,-0.2097,-0.2039,-0.2044,-0.2023,-0.198,-0.2141,-0.2106,-0.194,-0.194,-0.194,-0.194,-0.194,-0.194,-0.2003,-0.197,-0.1979,-0.1904,-0.1919,-0.1846,-0.1838,-0.1831,-0.188,-0.1905,-0.1978,-0.2104,-0.2111,-0.2223,-0.209,-0.1985,-0.1924,-0.1856,-0.1879,-0.2011,-0.2033,-0.2055,-0.2023,-0.1843,-0.1843,-0.1644,-0.1643,-0.1642]},{"header":{"parameterUnit":"m.s-1","parameterCategory":2,"la1":30.2991,"la2":30.254,"lo1":-89.0895,"lo2":-89.0444,"dy":0.0017,"dx":0.0017,"nx":28,"ny":28,"refTime":"2023-11-13T03:00:00:Z","depth":"0","parameterNumber":3,"parameterNumberName":"V-component_of_CURRENTS"},"data":[0,0,0,0,0,0,0,0,0,0,0,0,0,0,0,0,0,0,0,0,0,0,0,0,0,0,0,0,0,0,0,0,0,0,0,0,0,0,0,0,0,0,0,0,0,0,0,0,0,0,0,0,0,0,0,0,0,0,-0.034,-0.0339,0,-0.026,-0.0259,-0.0258,-0.0204,-0.0203,-0.0203,-0.0202,-0.0086,-0.0083,-0.008,0,0,0,0,0,0,0,0,0,0,0,0,0,-0.0397,-0.0397,-0.034,-0.0339,-0.0338,-0.026,-0.0259,-0.0258,-0.0204,-0.0203,-0.0203,-0.0202,-0.0087,-0.0083,-0.008,0,0,0,0,0,0,0,0,0,0,0,0,0,-0.035,-0.0397,-0.034,-0.0302,-0.0298,-0.026,-0.0259,-0.0257,-0.0204,-0.0203,-0.0203,-0.0202,-0.0088,-0.0084,-0.008,-0.0065,0,0,-0.0067,-0.0065,0,0,0,0,0,0,0,0,-0.0353,-0.0348,-0.0309,-0.0304,-0.03,-0.0241,-0.0236,-0.0191,-0.0204,-0.0239,-0.0202,-0.0202,-0.0135,-0.0127,-0.0113,-0.006,-0.0055,-0.0067,-0.0064,-0.0062,-0.0061,0,0,0,0,0,0,0,-0.0357,-0.0351,-0.0308,-0.0308,-0.0302,-0.0272,-0.0265,-0.0227,-0.019,-0.0236,-0.0232,-0.0223,-0.0132,-0.0118,-0.011,-0.0053,-0.0067,-0.0063,-0.0061,-0.0059,0.0029,0.0029,0,0,0,0,0,0,-0.037,-0.0355,-0.0311,-0.0306,-0.0326,-0.0271,-0.0264,-0.026,-0.0191,-0.0181,-0.0224,-0.0221,-0.0125,-0.0115,-0.0106,-0.008,-0.0062,-0.0059,-0.0056,0.0029,0.0029,0.0029,0,0,0,0,0,0,-0.0372,-0.0367,-0.0314,-0.0328,-0.0319,-0.0271,-0.0268,-0.0259,-0.0243,-0.0183,-0.0171,-0.0217,-0.0124,-0.0112,-0.0072,-0.0075,-0.0057,-0.0053,0.003,0.0029,0.0029,-0.0031,0,0,0,0,0,0,-0.0374,-0.0368,-0.0373,-0.0329,-0.0319,-0.0299,-0.0268,-0.0258,-0.0239,-0.0234,-0.0173,-0.0161,-0.0123,-0.0079,-0.0068,-0.0069,-0.005,0.003,0.0029,0.0029,-0.0029,-0.0034,-0.0037,0,0,0,0,0,-0.0376,-0.0387,-0.0374,-0.0368,-0.0326,-0.03,-0.0292,-0.0255,-0.0239,-0.0237,-0.0192,-0.0163,-0.0073,-0.0076,-0.0063,-0.0063,0.003,0.003,0.0029,-0.0027,-0.0033,-0.0037,0,0,0,0,0,0,-0.0414,-0.0381,-0.0366,-0.0366,-0.0338,-0.0291,-0.0287,-0.026,-0.0224,-0.0219,-0.0162,-0.0148,-0.0116,-0.0082,-0.0086,-0.0039,-0.0018,-0.0016,-0.0065,-0.007,-0.0074,-0.0086,-0.0046,0,0,0,0,0,-0.0426,-0.0426,-0.0386,-0.0388,-0.0377,-0.0333,-0.0318,-0.0293,-0.0255,-0.0238,-0.0194,-0.0148,-0.0108,-0.0084,-0.0046,-0.0018,0.0021,-0.001,-0.0014,-0.0018,-0.002,0.0033,0.0034,0.0028,0.0028,0.0028,0,0,-0.0441,-0.0423,-0.0423,-0.0396,-0.0372,-0.0364,-0.0323,-0.0307,-0.0295,-0.0231,-0.0206,-0.0162,-0.0105,-0.0075,-0.0057,-0.0045,0.0004,-0.0019,-0.0022,-0.0022,0.0033,0.0034,0.0034,0.0028,0.0028,0.0028,0,0,-0.0477,-0.0457,-0.0471,-0.0451,-0.0421,-0.0391,-0.039,-0.0345,-0.0321,-0.0291,-0.0243,-0.02,-0.0142,-0.0099,-0.0069,-0.0072,-0.0022,-0.0064,-0.0089,-0.0038,-0.0037,-0.0036,0.0013,0.002,-0.0063,-0.0063,-0.0063,0,-0.0498,-0.0508,-0.047,-0.0476,-0.0466,-0.0408,-0.0417,-0.0383,-0.0331,-0.0311,-0.0293,-0.0198,-0.0152,-0.0102,-0.0105,-0.0081,-0.0046,-0.0077,-0.0044,-0.0042,-0.0039,0.0011,0.0019,-0.0066,-0.0066,-0.0065,-0.0065,0,-0.0542,-0.0548,-0.0554,-0.0543,-0.0524,-0.0523,-0.0472,-0.0448,-0.0411,-0.0371,-0.0317,-0.0249,-0.0191,-0.0171,-0.0138,-0.0098,-0.0077,-0.0059,-0.0034,-0.0042,0.0011,0.002,-0.007,-0.0069,-0.0068,-0.0067,0,0,-0.0597,-0.059,-0.0593,-0.06,-0.056,-0.0552,-0.0528,-0.0489,-0.0471,-0.0409,-0.0377,-0.0303,-0.0259,-0.0223,-0.0169,-0.0121,-0.0075,-0.009,-0.0086,-0.0046,0.0038,0.009,0.0106,-0.0052,-0.0051,-0.005,0.0068,0,-0.0646,-0.0685,-0.0657,-0.0679,-0.0692,-0.063,-0.0613,-0.0564,-0.051,-0.0463,-0.0375,-0.0327,-0.0279,-0.0251,-0.0196,-0.0102,-0.0054,-0.0108,0.0045,0.005,0.0093,0.0117,0.0153,0.0265,0.0078,0.0079,0.008,0,-0.0699,-0.0719,-0.0759,-0.0752,-0.075,-0.0748,-0.0706,-0.068,-0.0591,-0.0547,-0.0471,-0.0397,-0.0305,-0.0272,-0.0113,-0.0151,-0.0068,0.0005,0.0011,0.0088,0.0119,0.0245,0.029,0.0431,0.0095,0.0094,0.0093,0,-0.0766,-0.0786,-0.0824,-0.0823,-0.0803,-0.0803,-0.0785,-0.0712,-0.069,-0.0597,-0.0565,-0.0441,-0.0375,-0.0254,-0.0093,-0.0106,0.0083,0.0087,0.0214,0.0219,0.0295,0.0305,0.0492,0.0188,0.0188,0.0187,0.0187,0,-0.083,-0.0857,-0.0864,-0.0885,-0.0921,-0.0874,-0.0882,-0.084,-0.0774,-0.0742,-0.0618,-0.0559,-0.0369,-0.0231,-0.0101,0.0098,0.0083,0.022,0.0258,0.0275,0.0281,0.0444,0.0491,0.0192,0.0191,0.019,0.0189,0,-0.0893,-0.0897,-0.0942,-0.095,-0.0956,-0.0981,-0.0965,-0.0961,-0.0886,-0.0838,-0.0811,-0.0639,-0.0443,-0.0244,-0.0024,0.0095,0.037,0.0338,0.0348,0.0386,0.0625,0.0665,0.0895,0.0975,0.0496,0.0498,0.05,0,-0.0929,-0.096,-0.1005,-0.1042,-0.1052,-0.1076,-0.1089,-0.1032,-0.1018,-0.088,-0.0862,-0.066,-0.0496,-0.0142,0.0114,0.0377,0.0475,0.0546,0.053,0.066,0.0733,0.0767,0.0818,0.0609,0.0611,0.0613,0.0615,0,-0.0993,-0.1008,-0.1048,-0.113,-0.1169,-0.1201,-0.1211,-0.1217,-0.1124,-0.1052,-0.0915,-0.0769,-0.0396,-0.005,0.0302,0.0447,0.0661,0.0595,0.0737,0.0847,0.0892,0.0979,0.0503,0.0633,0.0631,0.063,0.0629,0.0628,-0.1034,-0.1087,-0.1144,-0.1215,-0.1263,-0.1309,-0.1329,-0.1306,-0.1263,-0.1127,-0.0968,-0.0712,-0.0196,0.0321,0.05,0.0881,0.0828,0.0976,0.1017,0.1043,0.1118,0.0681,0.0846,0.0845,0.0845,0.0844,0.0844,0,-0.1086,-0.1147,-0.1225,-0.1306,-0.1366,-0.1368,-0.1392,-0.1377,-0.1318,-0.1143,-0.0965,-0.0396,0.0108,0.0559,0.112,0.1302,0.133,0.1377,0.1435,0.1469,0.11,0.1102,0.1323,0.1322,0.1322,0.1322,0.1322,0.1322,-0.1117,-0.1207,-0.125,-0.1367,-0.1419,-0.1469,-0.1478,-0.1429,-0.1312,-0.1015,-0.0699,-0.0425,0.0257,0.1196,0.1689,0.1703,0.1846,0.1824,0.1901,0.1641,0.1606,0.1573,0.1589,0.1908,0.1908,0.2263,0.2266,0.2269]}],[{"header":{"parameterUnit":"m.s-1","parameterCategory":2,"la1":30.2991,"la2":30.254,"lo1":-89.0895,"lo2":-89.0444,"dy":0.0017,"dx":0.0017,"nx":28,"ny":28,"refTime":"2023-11-13T03:00:00:Z","depth":"2","parameterNumber":2,"parameterNumberName":"U-component_of_CURRENTS"},"data":[0,0,0,0,0,0,0,0,0,0,0,0,0,0,0,0,0,0,0,0,0,0,0,0,0,0,0,0,0,0,0,0,0,0,0,0,0,0,0,0,0,0,0,0,0,0,0,0,0,0,0,0,0,0,0,0,0,0,-0.2329,-0.233,0,-0.2346,-0.2346,-0.2346,-0.2318,-0.2318,-0.2317,-0.2317,-0.2295,-0.2295,-0.2295,0,0,0,0,0,0,0,0,0,0,0,0,0,-0.2261,-0.2262,-0.2329,-0.233,-0.233,-0.2346,-0.2346,-0.2346,-0.2319,-0.2318,-0.2317,-0.2316,-0.2295,-0.2295,-0.2295,0,0,0,0,0,0,0,0,0,0,0,0,0,-0.2282,-0.2263,-0.2329,-0.2321,-0.2321,-0.2346,-0.2346,-0.2346,-0.2319,-0.2318,-0.2317,-0.2316,-0.2295,-0.2295,-0.2295,-0.2315,0,0,-0.2295,-0.2295,0,0,0,0,0,0,0,0,-0.2281,-0.2285,-0.2322,-0.2322,-0.2321,-0.2332,-0.2315,-0.2335,-0.2319,-0.2316,-0.2317,-0.2315,-0.2307,-0.2306,-0.2307,-0.2314,-0.2313,-0.2295,-0.2295,-0.2295,-0.2295,0,0,0,0,0,0,0,-0.228,-0.2284,-0.2332,-0.2322,-0.2322,-0.2313,-0.2314,-0.2318,-0.2313,-0.2316,-0.2315,-0.2323,-0.2306,-0.2307,-0.2306,-0.2312,-0.2295,-0.2295,-0.2295,-0.2295,-0.2348,-0.235,0,0,0,0,0,0,-0.2287,-0.2283,-0.2332,-0.2333,-0.2302,-0.2315,-0.2317,-0.2327,-0.2314,-0.2312,-0.2323,-0.2321,-0.2307,-0.2306,-0.2305,-0.2342,-0.2295,-0.2295,-0.2295,-0.2347,-0.2349,-0.235,0,0,0,0,0,0,-0.2285,-0.2291,-0.2331,-0.2311,-0.2315,-0.2318,-0.2329,-0.2328,-0.2331,-0.2321,-0.2317,-0.2329,-0.2307,-0.2305,-0.2315,-0.234,-0.2295,-0.2295,-0.2345,-0.2347,-0.2349,-0.2406,0,0,0,0,0,0,-0.2283,-0.229,-0.2299,-0.2311,-0.2317,-0.2357,-0.233,-0.2329,-0.2339,-0.2336,-0.2324,-0.2321,-0.2306,-0.2315,-0.2315,-0.2339,-0.2295,-0.2343,-0.2346,-0.2349,-0.2402,-0.241,-0.2416,0,0,0,0,0,-0.2281,-0.2299,-0.2299,-0.2305,-0.2329,-0.2358,-0.2361,-0.2356,-0.234,-0.2352,-0.234,-0.2322,-0.2332,-0.2316,-0.2316,-0.2341,-0.2342,-0.2345,-0.2348,-0.2399,-0.2408,-0.2416,0,0,0,0,0,0,-0.2271,-0.2299,-0.2299,-0.2323,-0.2344,-0.2355,-0.2365,-0.2363,-0.2364,-0.2357,-0.2337,-0.2335,-0.2355,-0.2342,-0.2326,-0.2365,-0.2335,-0.2338,-0.2374,-0.2382,-0.2389,-0.2389,-0.2295,0,0,0,0,0,-0.2276,-0.2294,-0.2321,-0.2338,-0.2351,-0.2359,-0.2369,-0.2371,-0.2376,-0.2374,-0.2367,-0.2362,-0.237,-0.237,-0.2373,-0.2393,-0.2376,-0.241,-0.2417,-0.2422,-0.2424,-0.2422,-0.2428,-0.236,-0.236,-0.236,0,0,-0.2274,-0.2293,-0.2301,-0.2337,-0.2348,-0.2379,-0.2362,-0.2385,-0.2407,-0.2373,-0.2393,-0.2388,-0.2381,-0.2404,-0.2412,-0.2394,-0.2436,-0.2426,-0.2431,-0.2429,-0.2426,-0.2432,-0.2438,-0.2362,-0.2362,-0.2362,0,0,-0.2286,-0.2302,-0.2323,-0.2349,-0.238,-0.2393,-0.2404,-0.2425,-0.2431,-0.2454,-0.2438,-0.2446,-0.2454,-0.2455,-0.2456,-0.2504,-0.2475,-0.2509,-0.254,-0.2538,-0.2544,-0.2548,-0.2542,-0.2546,-0.2509,-0.2509,-0.2509,0,-0.2283,-0.2316,-0.2334,-0.2368,-0.239,-0.2403,-0.2436,-0.2454,-0.2473,-0.2481,-0.2468,-0.2486,-0.2479,-0.2506,-0.2522,-0.252,-0.251,-0.2507,-0.2546,-0.255,-0.2554,-0.2547,-0.255,-0.2512,-0.2511,-0.2511,-0.2511,0,-0.2314,-0.2345,-0.2362,-0.2408,-0.2437,-0.2467,-0.2502,-0.2525,-0.253,-0.254,-0.2567,-0.256,-0.2564,-0.2574,-0.2561,-0.2591,-0.2574,-0.2557,-0.2522,-0.2564,-0.2554,-0.2556,-0.2516,-0.2515,-0.2514,-0.2513,0,0,-0.2286,-0.2368,-0.2371,-0.24,-0.2461,-0.2484,-0.2534,-0.2576,-0.2599,-0.2615,-0.2639,-0.2655,-0.2641,-0.2642,-0.2632,-0.2634,-0.2653,-0.2608,-0.2606,-0.2597,-0.2648,-0.2586,-0.2582,-0.264,-0.2641,-0.2641,-0.2633,0,-0.23,-0.2362,-0.2405,-0.2462,-0.2496,-0.2538,-0.2582,-0.2621,-0.2645,-0.2673,-0.2675,-0.2692,-0.2672,-0.2671,-0.2674,-0.2659,-0.266,-0.2657,-0.2613,-0.2612,-0.2548,-0.2583,-0.2382,-0.2353,-0.2635,-0.2635,-0.2635,0,-0.2307,-0.235,-0.2409,-0.2488,-0.2507,-0.2543,-0.2605,-0.2648,-0.2699,-0.2716,-0.2733,-0.2734,-0.2748,-0.272,-0.2712,-0.2709,-0.2684,-0.2669,-0.2668,-0.259,-0.2554,-0.2357,-0.2345,-0.2638,-0.2638,-0.2638,-0.2637,0,-0.2258,-0.2347,-0.239,-0.2419,-0.2513,-0.2542,-0.2585,-0.2647,-0.2681,-0.2733,-0.2755,-0.2772,-0.2774,-0.2755,-0.2722,-0.2718,-0.2705,-0.2691,-0.2615,-0.2611,-0.2419,-0.2397,-0.2684,-0.2684,-0.2684,-0.2684,-0.2684,0,-0.2249,-0.2279,-0.2368,-0.239,-0.2433,-0.2511,-0.2557,-0.2606,-0.2677,-0.271,-0.2759,-0.2775,-0.2782,-0.2775,-0.274,-0.2679,-0.2714,-0.2625,-0.2606,-0.2435,-0.2415,-0.2643,-0.2638,-0.2684,-0.2684,-0.2684,-0.2684,0,-0.2181,-0.2248,-0.2293,-0.2385,-0.241,-0.2431,-0.2524,-0.2561,-0.2641,-0.2686,-0.2702,-0.2775,-0.2768,-0.2765,-0.2738,-0.2691,-0.2646,-0.2615,-0.2415,-0.2373,-0.2551,-0.2549,-0.2536,-0.2534,-0.2532,-0.253,-0.2529,0,-0.2151,-0.2168,-0.2253,-0.2275,-0.2313,-0.2365,-0.2405,-0.251,-0.2555,-0.2667,-0.2681,-0.2722,-0.2715,-0.2674,-0.2601,-0.2535,-0.2597,-0.2317,-0.2275,-0.2554,-0.2537,-0.2538,-0.2539,-0.2045,-0.204,-0.2036,-0.2032,0,-0.2075,-0.2103,-0.2139,-0.2178,-0.2219,-0.2262,-0.2329,-0.2363,-0.2487,-0.2533,-0.2585,-0.2595,-0.2589,-0.2436,-0.2373,-0.2301,-0.2314,-0.223,-0.2558,-0.2123,-0.2092,-0.2076,-0.2092,-0.1994,-0.1998,-0.2001,-0.2003,-0.2005,-0.1994,-0.1993,-0.2034,-0.2058,-0.2106,-0.2125,-0.2112,-0.2204,-0.2238,-0.2275,-0.2392,-0.2345,-0.2341,-0.2145,-0.2039,-0.1955,-0.211,-0.2,-0.2012,-0.2029,-0.1982,-0.1951,-0.1818,-0.182,-0.1823,-0.1825,-0.1827,0,-0.1879,-0.1891,-0.1913,-0.1932,-0.1921,-0.1987,-0.2032,-0.1995,-0.198,-0.2052,-0.2065,-0.1877,-0.1792,-0.1794,-0.1614,-0.1586,-0.1557,-0.1511,-0.1466,-0.1504,-0.1538,-0.1466,-0.1164,-0.1162,-0.1161,-0.1159,0,0,-0.1819,-0.1787,-0.1794,-0.1722,-0.1739,-0.1665,-0.1651,-0.1621,-0.1632,-0.1571,-0.1554,-0.1697,-0.1749,-0.146,-0.1388,-0.1249,-0.1361,-0.1186,-0.1716,-0.17,-0.1732,-0.1817,-0.175,0,0,0,0,0]},{"header":{"parameterUnit":"m.s-1","parameterCategory":2,"la1":30.2991,"la2":30.254,"lo1":-89.0895,"lo2":-89.0444,"dy":0.0017,"dx":0.0017,"nx":28,"ny":28,"refTime":"2023-11-13T03:00:00:Z","depth":"2","parameterNumber":3,"parameterNumberName":"V-component_of_CURRENTS"},"data":[0,0,0,0,0,0,0,0,0,0,0,0,0,0,0,0,0,0,0,0,0,0,0,0,0,0,0,0,0,0,0,0,0,0,0,0,0,0,0,0,0,0,0,0,0,0,0,0,0,0,0,0,0,0,0,0,0,0,-0.0226,-0.0225,0,-0.0153,-0.0152,-0.0151,-0.0102,-0.0102,-0.0101,-0.0101,0.0009,0.0012,0.0014,0,0,0,0,0,0,0,0,0,0,0,0,0,-0.0274,-0.0273,-0.0226,-0.0225,-0.0224,-0.0153,-0.0152,-0.0151,-0.0102,-0.0102,-0.0101,-0.0101,0.0008,0.0011,0.0014,0,0,0,0,0,0,0,0,0,0,0,0,0,-0.0232,-0.0273,-0.0226,-0.0191,-0.0188,-0.0153,-0.0152,-0.015,-0.0102,-0.0101,-0.0101,-0.0101,0.0007,0.0011,0.0015,0.003,0,0,0.0027,0.0029,0,0,0,0,0,0,0,0,-0.0234,-0.023,-0.0197,-0.0194,-0.0189,-0.0136,-0.0128,-0.0088,-0.0102,-0.0134,-0.0101,-0.01,-0.0037,-0.0029,-0.0016,0.0035,0.004,0.0027,0.003,0.0031,0.0032,0,0,0,0,0,0,0,-0.0237,-0.0233,-0.0196,-0.0196,-0.0192,-0.0162,-0.0156,-0.012,-0.0088,-0.0131,-0.0128,-0.012,-0.0034,-0.002,-0.0013,0.0042,0.0027,0.0031,0.0033,0.0035,0.0118,0.0118,0,0,0,0,0,0,-0.025,-0.0236,-0.0199,-0.0194,-0.0211,-0.0162,-0.0155,-0.0153,-0.0089,-0.0079,-0.0121,-0.0118,-0.0027,-0.0018,-0.0009,0.0014,0.0031,0.0035,0.0037,0.0118,0.0118,0.0118,0,0,0,0,0,0,-0.0252,-0.0248,-0.0202,-0.0213,-0.0205,-0.0162,-0.016,-0.0152,-0.0138,-0.0081,-0.0071,-0.0115,-0.0027,-0.0015,0.0022,0.0019,0.0037,0.004,0.0119,0.0118,0.0118,0.0061,0,0,0,0,0,0,-0.0253,-0.0249,-0.0254,-0.0214,-0.0205,-0.0189,-0.016,-0.0151,-0.0134,-0.013,-0.0073,-0.0062,-0.0025,0.0016,0.0026,0.0025,0.0044,0.0119,0.0118,0.0118,0.0063,0.0059,0.0055,0,0,0,0,0,-0.0255,-0.0267,-0.0255,-0.025,-0.0213,-0.0189,-0.0182,-0.0149,-0.0135,-0.0134,-0.0092,-0.0064,0.0021,0.0019,0.0031,0.0031,0.0119,0.0119,0.0118,0.0065,0.0059,0.0055,0,0,0,0,0,0,-0.029,-0.0262,-0.0248,-0.025,-0.0224,-0.0181,-0.0179,-0.0155,-0.0121,-0.0117,-0.0063,-0.0049,-0.002,0.0013,0.0009,0.0054,0.0073,0.0075,0.0029,0.0024,0.002,0.0009,0.0047,0,0,0,0,0,-0.0301,-0.0303,-0.0267,-0.027,-0.026,-0.022,-0.0207,-0.0185,-0.015,-0.0135,-0.0094,-0.005,-0.0012,0.0011,0.0046,0.0073,0.0111,0.008,0.0076,0.0073,0.0071,0.0123,0.0124,0.0117,0.0117,0.0117,0,0,-0.0315,-0.03,-0.0301,-0.0278,-0.0256,-0.0249,-0.0212,-0.0198,-0.0188,-0.0128,-0.0104,-0.0064,-0.0009,0.0019,0.0035,0.0047,0.0094,0.0072,0.0069,0.007,0.0123,0.0124,0.0125,0.0117,0.0117,0.0117,0,0,-0.0349,-0.0332,-0.0346,-0.0329,-0.0303,-0.0275,-0.0274,-0.0235,-0.0213,-0.0185,-0.014,-0.01,-0.0046,-0.0004,0.0024,0.002,0.0068,0.0028,0.0005,0.0055,0.0056,0.0057,0.0104,0.011,0.0029,0.0029,0.0029,0,-0.0369,-0.038,-0.0346,-0.0352,-0.0343,-0.0292,-0.03,-0.0269,-0.0222,-0.0203,-0.0187,-0.0099,-0.0056,-0.0007,-0.001,0.0012,0.0046,0.0017,0.0049,0.0052,0.0054,0.0102,0.0109,0.0027,0.0027,0.0027,0.0027,0,-0.041,-0.0417,-0.0424,-0.0414,-0.0397,-0.0398,-0.0351,-0.033,-0.0297,-0.0259,-0.021,-0.0146,-0.0092,-0.0073,-0.0041,-0.0003,0.0017,0.0034,0.0059,0.0051,0.0102,0.0111,0.0023,0.0024,0.0024,0.0025,0,0,-0.0462,-0.0456,-0.0461,-0.0467,-0.0432,-0.0425,-0.0403,-0.0367,-0.0351,-0.0294,-0.0264,-0.0195,-0.0154,-0.012,-0.007,-0.0023,0.0022,0.0006,0.001,0.0048,0.0131,0.017,0.0184,0.0044,0.0045,0.0046,0.0159,0,-0.0508,-0.0545,-0.0519,-0.0542,-0.0554,-0.0497,-0.0481,-0.0437,-0.0387,-0.0344,-0.0261,-0.0217,-0.0172,-0.0148,-0.0093,-0.0005,0.0042,-0.001,0.0137,0.0142,0.0174,0.0195,0.0165,0.0265,0.0168,0.0169,0.017,0,-0.0558,-0.0577,-0.0615,-0.061,-0.0608,-0.0608,-0.057,-0.0546,-0.0463,-0.0423,-0.0352,-0.0283,-0.0196,-0.0165,-0.0013,-0.005,0.003,0.0099,0.0106,0.0169,0.0197,0.0259,0.0285,0.0186,0.0184,0.0183,0.0182,0,-0.0622,-0.0641,-0.0677,-0.0677,-0.0659,-0.066,-0.0644,-0.0578,-0.0558,-0.0471,-0.0443,-0.0325,-0.0265,-0.0147,0.0004,-0.0007,0.0172,0.0179,0.0292,0.0295,0.0313,0.0317,0.0278,0.0278,0.0277,0.0277,0.0277,0,-0.0682,-0.0709,-0.0716,-0.0736,-0.0773,-0.0729,-0.0739,-0.07,-0.0639,-0.0611,-0.0494,-0.0441,-0.0259,-0.0129,-0.0003,0.0182,0.0173,0.0297,0.0332,0.0293,0.0293,0.0257,0.0253,0.0281,0.028,0.028,0.0279,0,-0.0742,-0.0746,-0.079,-0.0799,-0.0806,-0.0832,-0.082,-0.0818,-0.0749,-0.0705,-0.0681,-0.0522,-0.034,-0.0149,0.0061,0.0175,0.0342,0.0404,0.0348,0.0375,0.043,0.0422,0.0542,0.0544,0.0546,0.0548,0.0549,0,-0.0776,-0.0807,-0.0851,-0.0888,-0.0899,-0.0925,-0.094,-0.0887,-0.0875,-0.075,-0.0734,-0.0549,-0.04,-0.0067,0.0168,0.0417,0.0406,0.0519,0.0498,0.0438,0.046,0.0448,0.0437,0.0498,0.0499,0.05,0.0501,0,-0.0838,-0.0854,-0.0893,-0.0974,-0.1014,-0.1046,-0.1059,-0.1065,-0.0978,-0.0916,-0.0793,-0.0661,-0.0321,-0.0032,0.0295,0.0424,0.048,0.0543,0.0511,0.0433,0.0406,0.0424,0.0413,0.0507,0.0506,0.0506,0.0506,0.0505,-0.088,-0.0931,-0.0987,-0.1057,-0.1106,-0.1151,-0.1172,-0.1152,-0.1116,-0.0991,-0.0851,-0.0621,-0.0323,0.0145,0.0374,0.0576,0.057,0.0615,0.0609,0.0603,0.0575,0.0553,0.0677,0.0677,0.0677,0.0677,0.0678,0,-0.0931,-0.0989,-0.1066,-0.1145,-0.1204,-0.1209,-0.1233,-0.1215,-0.1166,-0.101,-0.085,-0.0514,-0.017,0.0126,0.0465,0.0669,0.0634,0.0685,0.0607,0.06,0.0594,0.0562,0.0662,0.0662,0.0663,0.0663,0,0,-0.0962,-0.1047,-0.1088,-0.1203,-0.1257,-0.1306,-0.1316,-0.1262,-0.1154,-0.0993,-0.0809,-0.0542,-0.0161,0.0076,0.034,0.0514,0.0491,0.0514,0.0507,0.0377,0.0368,0.0538,0.048,0,0,0,0,0]}],[{"header":{"parameterUnit":"m.s-1","parameterCategory":2,"la1":30.2991,"la2":30.254,"lo1":-89.0895,"lo2":-89.0444,"dy":0.0017,"dx":0.0017,"nx":28,"ny":28,"refTime":"2023-11-13T03:00:00:Z","depth":"4","parameterNumber":2,"parameterNumberName":"U-component_of_CURRENTS"},"data":[0,0,0,0,0,0,0,0,0,0,0,0,0,0,0,0,0,0,0,0,0,0,0,0,0,0,0,0,0,0,0,0,0,0,0,0,0,0,0,0,0,0,0,0,0,0,0,0,0,0,0,0,0,0,0,0,0,0,-0.1635,-0.1636,0,-0.17,-0.1701,-0.1701,-0.1738,-0.1738,-0.1739,-0.1739,-0.1792,-0.1793,-0.1794,0,0,0,0,0,0,0,0,0,0,0,0,0,-0.1542,-0.1543,-0.1635,-0.1636,-0.1637,-0.17,-0.1701,-0.1702,-0.1738,-0.1738,-0.1739,-0.1739,-0.1791,-0.1793,-0.1794,0,0,0,0,0,0,0,0,0,0,0,0,0,-0.159,-0.1544,-0.1635,-0.1664,-0.1668,-0.17,-0.1701,-0.1702,-0.1738,-0.1738,-0.1739,-0.1739,-0.1791,-0.1793,-0.1794,-0.1796,0,0,-0.1799,-0.18,0,0,0,0,0,0,0,0,-0.1587,-0.1593,-0.1659,-0.1662,-0.1666,-0.1713,-0.1688,-0.1733,-0.1738,-0.1709,-0.1739,-0.1739,-0.1765,-0.1769,-0.1778,-0.1798,-0.1801,-0.18,-0.1801,-0.1801,-0.1802,0,0,0,0,0,0,0,-0.1584,-0.1591,-0.1659,-0.166,-0.1664,-0.1674,-0.1681,-0.1696,-0.1732,-0.1712,-0.1715,-0.1725,-0.1767,-0.1776,-0.1779,-0.1801,-0.18,-0.1801,-0.1802,-0.1803,-0.1903,-0.1904,0,0,0,0,0,0,-0.158,-0.1588,-0.1657,-0.1661,-0.1629,-0.1676,-0.1684,-0.1696,-0.1732,-0.1739,-0.1725,-0.1727,-0.1773,-0.1777,-0.1781,-0.1858,-0.1801,-0.1803,-0.1804,-0.1901,-0.1903,-0.1905,0,0,0,0,0,0,-0.1578,-0.1585,-0.1654,-0.1627,-0.1637,-0.1677,-0.1691,-0.1697,-0.1736,-0.1743,-0.1749,-0.176,-0.1773,-0.1779,-0.1822,-0.1857,-0.1804,-0.1805,-0.1899,-0.1902,-0.1904,-0.1965,0,0,0,0,0,0,-0.1575,-0.1584,-0.1605,-0.1627,-0.1638,-0.1695,-0.1691,-0.1698,-0.1741,-0.1745,-0.1775,-0.1778,-0.1774,-0.182,-0.1824,-0.1859,-0.1807,-0.1897,-0.19,-0.1903,-0.196,-0.1969,-0.1976,0,0,0,0,0,-0.1571,-0.1594,-0.1606,-0.1615,-0.1661,-0.1697,-0.1704,-0.1732,-0.1742,-0.1767,-0.1788,-0.1779,-0.1842,-0.1822,-0.1827,-0.1863,-0.1896,-0.19,-0.1903,-0.1957,-0.1967,-0.1976,0,0,0,0,0,0,-0.1565,-0.16,-0.1614,-0.1647,-0.1681,-0.1704,-0.1733,-0.175,-0.1786,-0.1797,-0.1799,-0.1805,-0.1857,-0.1852,-0.1831,-0.1901,-0.1868,-0.1873,-0.1908,-0.1917,-0.1925,-0.192,-0.1808,0,0,0,0,0,-0.1573,-0.16,-0.1634,-0.1663,-0.1683,-0.1714,-0.1737,-0.1758,-0.1786,-0.1804,-0.1825,-0.1848,-0.1871,-0.1889,-0.1907,-0.1945,-0.1928,-0.1972,-0.198,-0.1986,-0.1986,-0.1989,-0.1996,-0.1917,-0.1917,-0.1917,0,0,-0.1579,-0.1602,-0.1619,-0.1665,-0.1692,-0.1729,-0.1729,-0.1775,-0.1813,-0.1803,-0.1866,-0.1879,-0.1888,-0.1932,-0.1955,-0.1936,-0.2002,-0.1991,-0.1996,-0.1993,-0.1993,-0.2001,-0.2007,-0.192,-0.1919,-0.1919,0,0,-0.1596,-0.1628,-0.1655,-0.1688,-0.1739,-0.1759,-0.178,-0.1825,-0.1856,-0.1909,-0.1913,-0.1947,-0.1988,-0.1998,-0.2007,-0.2068,-0.2044,-0.2082,-0.2117,-0.212,-0.2126,-0.2131,-0.2123,-0.2126,-0.2084,-0.2084,-0.2084,0,-0.1604,-0.1642,-0.167,-0.1707,-0.174,-0.1777,-0.1818,-0.1854,-0.191,-0.1934,-0.194,-0.2004,-0.2016,-0.2057,-0.2082,-0.2086,-0.2078,-0.208,-0.2128,-0.2133,-0.2137,-0.2127,-0.2131,-0.2087,-0.2087,-0.2087,-0.2086,0,-0.1633,-0.1678,-0.17,-0.1757,-0.1797,-0.1841,-0.1891,-0.1939,-0.1977,-0.2004,-0.2067,-0.2083,-0.2113,-0.2131,-0.2127,-0.2171,-0.2153,-0.2138,-0.2101,-0.2148,-0.2136,-0.2138,-0.2092,-0.2091,-0.209,-0.2089,0,0,-0.1608,-0.1703,-0.1712,-0.1752,-0.1831,-0.1862,-0.1933,-0.1995,-0.2038,-0.2092,-0.2139,-0.2186,-0.2191,-0.2201,-0.2204,-0.2214,-0.2242,-0.2195,-0.2194,-0.218,-0.2243,-0.2102,-0.2091,-0.2236,-0.2237,-0.2237,-0.2223,0,-0.1624,-0.1695,-0.1744,-0.1821,-0.1861,-0.1925,-0.1984,-0.2047,-0.2098,-0.2153,-0.218,-0.2224,-0.2219,-0.2238,-0.2249,-0.2244,-0.2251,-0.2246,-0.2205,-0.2204,-0.2066,-0.209,-0.224,-0.2225,-0.2225,-0.2226,-0.2226,0,-0.1628,-0.1678,-0.1755,-0.1853,-0.1878,-0.1932,-0.2026,-0.2085,-0.2164,-0.2202,-0.2246,-0.2266,-0.2301,-0.2285,-0.2294,-0.2292,-0.2276,-0.2266,-0.2264,-0.211,-0.2066,-0.2167,-0.223,-0.2229,-0.2229,-0.2229,-0.2229,0,-0.1575,-0.1682,-0.1744,-0.178,-0.1896,-0.1947,-0.2007,-0.2096,-0.2145,-0.223,-0.2264,-0.2305,-0.2327,-0.2321,-0.2304,-0.2304,-0.2297,-0.2288,-0.2145,-0.2136,-0.224,-0.2235,-0.2289,-0.2289,-0.2289,-0.2289,-0.2289,0,-0.1554,-0.1606,-0.173,-0.1762,-0.1834,-0.1926,-0.2004,-0.2069,-0.2159,-0.2201,-0.2278,-0.2296,-0.2339,-0.2339,-0.2316,-0.2225,-0.2301,-0.2147,-0.2119,-0.2267,-0.2265,-0.2242,-0.2236,-0.2289,-0.2289,-0.2289,-0.2289,0,-0.1479,-0.1567,-0.1641,-0.1769,-0.1811,-0.1858,-0.1985,-0.2032,-0.2133,-0.2188,-0.2214,-0.2296,-0.2289,-0.2307,-0.2294,-0.2219,-0.2162,-0.2114,-0.2269,-0.2252,-0.1999,-0.1998,-0.1947,-0.1942,-0.1937,-0.1934,-0.1931,0,-0.1445,-0.1478,-0.1617,-0.1661,-0.1724,-0.1813,-0.1869,-0.1993,-0.2035,-0.2157,-0.2161,-0.2212,-0.2241,-0.2105,-0.2143,-0.2081,-0.2058,-0.2018,-0.2009,-0.1984,-0.1963,-0.1969,-0.1973,-0.1924,-0.1923,-0.1921,-0.192,0,-0.1366,-0.143,-0.149,-0.157,-0.1641,-0.1707,-0.1793,-0.1808,-0.1939,-0.2059,-0.2043,-0.2031,-0.2024,-0.2001,-0.1969,-0.1926,-0.2036,-0.1972,-0.1981,-0.1972,-0.1955,-0.194,-0.1949,-0.1905,-0.1907,-0.1909,-0.191,0,-0.1303,-0.1319,-0.14,-0.1456,-0.154,-0.1559,-0.1628,-0.1673,-0.1725,-0.1871,-0.1856,-0.1914,-0.1999,-0.1919,-0.1885,-0.1833,-0.1807,-0.1744,-0.1765,-0.1782,-0.1733,-0.1687,-0.1523,0,0,0,0,0,-0.1226,-0.1229,-0.1277,-0.1328,-0.1405,-0.144,-0.1558,-0.1633,-0.1764,-0.1706,-0.1776,-0.176,-0.1718,-0.1751,-0.166,-0.1803,-0.181,-0.169,-0.1748,-0.1821,-0.1838,-0.1794,0,0,0,0,0,0,-0.1175,-0.1212,-0.1226,-0.1197,-0.1207,-0.1263,-0.1325,-0.1422,-0.1404,-0.1548,-0.1534,-0.1643,-0.1628,-0.1733,-0.1617,-0.1626,-0.1624,-0.1739,-0.1734,-0.1811,-0.1827,-0.1841,-0.1802,0,0,0,0,0]},{"header":{"parameterUnit":"m.s-1","parameterCategory":2,"la1":30.2991,"la2":30.254,"lo1":-89.0895,"lo2":-89.0444,"dy":0.0017,"dx":0.0017,"nx":28,"ny":28,"refTime":"2023-11-13T03:00:00:Z","depth":"4","parameterNumber":3,"parameterNumberName":"V-component_of_CURRENTS"},"data":[0,0,0,0,0,0,0,0,0,0,0,0,0,0,0,0,0,0,0,0,0,0,0,0,0,0,0,0,0,0,0,0,0,0,0,0,0,0,0,0,0,0,0,0,0,0,0,0,0,0,0,0,0,0,0,0,0,0,-0.013,-0.0129,0,-0.0082,-0.0081,-0.0081,-0.0046,-0.0046,-0.0046,-0.0046,0.0042,0.0044,0.0046,0,0,0,0,0,0,0,0,0,0,0,0,0,-0.0152,-0.0152,-0.013,-0.0129,-0.0129,-0.0082,-0.0081,-0.008,-0.0046,-0.0046,-0.0046,-0.0046,0.0041,0.0044,0.0046,0,0,0,0,0,0,0,0,0,0,0,0,0,-0.0126,-0.0152,-0.013,-0.0107,-0.0104,-0.0082,-0.0081,-0.008,-0.0046,-0.0046,-0.0046,-0.0045,0.004,0.0043,0.0047,0.006,0,0,0.0056,0.0058,0,0,0,0,0,0,0,0,-0.0128,-0.0125,-0.0111,-0.0108,-0.0105,-0.007,-0.0057,-0.0032,-0.0046,-0.0068,-0.0046,-0.0045,0.0007,0.0013,0.0022,0.0064,0.0068,0.0057,0.0059,0.006,0.0061,0,0,0,0,0,0,0,-0.013,-0.0127,-0.011,-0.011,-0.0107,-0.0085,-0.0081,-0.0052,-0.0031,-0.0066,-0.0063,-0.0059,0.0009,0.0019,0.0024,0.0069,0.0057,0.0059,0.0061,0.0063,0.013,0.013,0,0,0,0,0,0,-0.014,-0.0129,-0.0112,-0.0109,-0.0117,-0.0085,-0.0081,-0.0081,-0.0032,-0.0025,-0.006,-0.0058,0.0013,0.0021,0.0028,0.0046,0.006,0.0063,0.0065,0.013,0.013,0.013,0,0,0,0,0,0,-0.014,-0.0139,-0.0114,-0.0118,-0.0113,-0.0085,-0.0086,-0.0081,-0.0071,-0.0028,-0.002,-0.0056,0.0014,0.0023,0.0052,0.005,0.0064,0.0067,0.013,0.013,0.013,0.0084,0,0,0,0,0,0,-0.0141,-0.0139,-0.0145,-0.0119,-0.0113,-0.0107,-0.0086,-0.008,-0.0069,-0.0067,-0.0022,-0.0014,0.0015,0.0047,0.0055,0.0055,0.007,0.013,0.013,0.013,0.0086,0.0082,0.0079,0,0,0,0,0,-0.0142,-0.0153,-0.0145,-0.0143,-0.0121,-0.0107,-0.0103,-0.0081,-0.007,-0.007,-0.0038,-0.0015,0.0051,0.0049,0.0059,0.006,0.0131,0.013,0.013,0.0087,0.0083,0.0079,0,0,0,0,0,0,-0.0164,-0.0149,-0.0141,-0.0146,-0.0131,-0.0102,-0.0102,-0.0085,-0.006,-0.0057,-0.0014,-0.0004,0.0019,0.0045,0.0042,0.0078,0.0094,0.0095,0.0058,0.0054,0.0051,0.0042,0.0072,0,0,0,0,0,-0.0173,-0.0178,-0.0156,-0.0161,-0.0156,-0.0129,-0.0121,-0.0107,-0.0081,-0.007,-0.0039,-0.0005,0.0025,0.0044,0.0071,0.0093,0.0126,0.01,0.0096,0.0093,0.0092,0.0139,0.014,0.0129,0.0129,0.0129,0,0,-0.0183,-0.0176,-0.0178,-0.0167,-0.0153,-0.0151,-0.0124,-0.0117,-0.0111,-0.0064,-0.0048,-0.0017,0.0027,0.0049,0.0062,0.0073,0.0113,0.0093,0.009,0.0091,0.0139,0.014,0.0141,0.0129,0.0129,0.0129,0,0,-0.0208,-0.02,-0.0213,-0.0204,-0.0189,-0.0171,-0.0171,-0.0146,-0.0131,-0.0111,-0.0077,-0.0045,-0.0003,0.003,0.0053,0.005,0.0091,0.0056,0.0039,0.0084,0.0085,0.0087,0.0125,0.0131,0.0059,0.0059,0.0059,0,-0.0222,-0.0234,-0.0214,-0.0222,-0.0219,-0.0183,-0.0193,-0.0171,-0.0139,-0.0125,-0.0114,-0.0046,-0.0011,0.0029,0.0026,0.0044,0.0073,0.0049,0.0079,0.0082,0.0084,0.0124,0.013,0.0056,0.0057,0.0057,0.0057,0,-0.0253,-0.0263,-0.027,-0.0269,-0.026,-0.0264,-0.0233,-0.022,-0.0198,-0.0171,-0.0134,-0.0083,-0.0041,-0.0025,0.0001,0.0035,0.0051,0.0066,0.0088,0.0083,0.0125,0.0132,0.0053,0.0054,0.0055,0.0055,0,0,-0.0286,-0.0293,-0.0297,-0.0307,-0.0288,-0.0287,-0.0273,-0.025,-0.0241,-0.0199,-0.0179,-0.0122,-0.0091,-0.0063,-0.0022,0.002,0.0061,0.0046,0.0049,0.0081,0.0158,0.0143,0.015,0.0082,0.0083,0.0084,0.0179,0,-0.032,-0.0355,-0.0341,-0.0366,-0.0378,-0.0343,-0.0335,-0.0306,-0.0271,-0.0242,-0.0175,-0.0143,-0.0105,-0.0087,-0.0038,0.0037,0.008,0.0034,0.016,0.0164,0.015,0.0158,0.0088,0.0185,0.0187,0.0188,0.0189,0,-0.0355,-0.0375,-0.0412,-0.0419,-0.0421,-0.0428,-0.0409,-0.0395,-0.0335,-0.0307,-0.0252,-0.0198,-0.0126,-0.0099,0.0033,0.0001,0.0071,0.0131,0.0136,0.0144,0.0164,0.0193,0.0203,0.0202,0.0201,0.02,0.0199,0,-0.0395,-0.0422,-0.0458,-0.0461,-0.0461,-0.047,-0.0466,-0.0421,-0.0411,-0.0348,-0.0329,-0.0232,-0.0185,-0.0081,0.0044,0.0039,0.0189,0.02,0.0256,0.0256,0.0261,0.0258,0.0288,0.0288,0.0288,0.0287,0.0287,0,-0.0433,-0.0461,-0.0487,-0.0507,-0.0547,-0.0523,-0.0543,-0.0519,-0.048,-0.0463,-0.0372,-0.0334,-0.0179,-0.0072,0.0038,0.0171,0.0188,0.0255,0.028,0.0239,0.0233,0.0267,0.0263,0.0291,0.029,0.0289,0.0289,0,-0.0465,-0.0482,-0.0528,-0.0555,-0.057,-0.0599,-0.0613,-0.0617,-0.0572,-0.0545,-0.0528,-0.0405,-0.0262,-0.0104,0.0076,0.0155,0.0288,0.033,0.0273,0.0293,0.0326,0.0319,0.0399,0.04,0.04,0.04,0.04,0,-0.0483,-0.0511,-0.0575,-0.0616,-0.0637,-0.0675,-0.0698,-0.0672,-0.0667,-0.0585,-0.0572,-0.0436,-0.0336,-0.0088,0.007,0.0285,0.0309,0.0371,0.0349,0.0321,0.0339,0.0331,0.0323,0.0401,0.0401,0.0401,0.0401,0,-0.0515,-0.0543,-0.0584,-0.067,-0.0721,-0.0763,-0.079,-0.0794,-0.074,-0.0704,-0.0595,-0.0454,-0.0291,-0.0094,0.0075,0.0225,0.0328,0.0375,0.0375,0.0354,0.0324,0.0339,0.0331,0.0402,0.0402,0.0401,0.0401,0,-0.0538,-0.0582,-0.0644,-0.0714,-0.0783,-0.0827,-0.0838,-0.0815,-0.0796,-0.0691,-0.0657,-0.0467,-0.0348,-0.0125,0.0029,0.0179,0.021,0.0243,0.0251,0.0252,0.0177,0.0115,0.0153,0,0,0,0,0,-0.0555,-0.0608,-0.0682,-0.0757,-0.0824,-0.0857,-0.0883,-0.0874,-0.0824,-0.0754,-0.0699,-0.054,-0.029,-0.0182,-0.0034,0.0018,0.0221,0.0192,0.0259,0.0407,0.0406,0.0341,0,0,0,0,0,0,-0.057,-0.0644,-0.0683,-0.0771,-0.0825,-0.0888,-0.0905,-0.0876,-0.0824,-0.0754,-0.062,-0.0522,-0.0282,-0.0371,-0.0036,0.0011,0.0068,0.0318,0.0321,0.0407,0.0406,0.0405,0.0339,0,0,0,0,0]}]]